Location: Altleiningen
(49.5078°N, 8.0741°E)
Time: 03:43:21
(UTC+00:00)

SJ 16-02 - Pass Details

Date: 03 March 2021
Orbit: 605 x 617 km, 75.0° (Epoch: 16 April)

Event Time Altitude Azimuth Distance (km) Brightness Sun altitude
Rises 19:33:42 0° 340° (NNW) 2,884 5.3 -23.2°
Reaches altitude 10° 19:35:58 10° 344° (NNW) 1,977 4.4 -23.6°
Enters shadow 19:39:33 52° 18° (NNE) 770 1.7 -24.1°
